Presure
91 90 92 94 89 95 120 86 87 85 88 81 80 83 81 79 80 82 79 79 78 80 82 76 87 69 80 109 109 106 127 124 139 129 143 152 158 150 156 158 153 159 158
92 129 92 89 95 92 84 81 91 87 78 80 78 84 82 82 82 76 79 73 79 78 77 76 77 77 107 133 112 93 138 143 149 150 128 130 125 127 126 99 89 90 132
139 83 89 91 92 93 91 83 83 83 87 81 81 81 88 79 81 78 103 78 79 116 75 73 77 83 79 79 83 79 123 166 149 111 123 128 134 135 132 154 125 83 111
129 145 95 88 87 89 91 90 82 82 120 99 78 79 87 74 77 88 76 77 77 76 72 67 97 73 111 67 108 119 82 118 117 114 125 112 115 117 119 129 134 130 124
131 139 101 87 83 85 90 126 91 80 84 83 78 76 75 92 138 78 80 82 76 77 79 109 82 86 72 120 148 151 119 98 119 129 110 120 116 124 132 146 142 152 170
141 127 152 122 114 82 130 130 98 127 130 91 88 78 79 75 88 79 79 80 90 80 72 72 125 114 129 109 108 86 132 123 122 126 130 137 129 134 139 139 82 114 116
143 143 139 142 111 79 83 88 135 123 126 117 99 127 79 74 79 95 81 124 79 80 105 79 79 114 114 73 142 128 132 136 131 119 119 112 110 151 143 149 90 121 179
131 153 146 131 89 109 140 137 79 139 91 106 78 80 81 79 74 103 72 98 70 72 103 112 132 102 112 131 132 155 121 100 126 127 108 84 125 136 131 124 89 134 92
119 125 171 146 156 144 136 143 126 116 76 102 94 110 86 77 104 112 132 75 72 77 82 83 160 148 151 116 101 130 131 81 86 100 98 150 84 87 93 89 176 162 166
140 111 158 143 128 126 122 82 121 143 139 140 139 81 84 148 151 84 79 78 120 85 105 138 149 152 92 119 124 80 88 113 91 139 142 73 143 77 130 135 155 168 162
150 127 146 145 89 77 132 126 82 128 129 75 96 73 72 131 84 123 95 82 77 119 126 84 80 134 105 83 105 83 107 94 84 154 155 80 81 143 146 168 155 154 158
139 137 141 148 118 132 124 106 110 138 104 83 112 84 103 137 120 124 130 87 110 121 139 95 78 104 72 83 86 125 127 79 108 83 144 142 142 139 150 158 164 156 165
177 161 152 148 96 75 127 116 98 107 80 71 110 159 131 81 82 120 127 132 137 130 88 123 131 137 89 84 143 112 78 149 134 122 116 140 155 148 169 147 146 157 160
78 124 163 156 138 146 132 125 78 82 115 95 78 79 86 146 146 119 141 127 126 125 134 131 154 144 141 143 145 127 80 81 142 147 149 164 152 155 175 150 160 163 147
158 121 158 169 159 124 146 135 121 120 129 110 104 128 91 91 103 102 128 84 79 130 109 108 74 136 112 87 159 137 118 149 166 129 145 125 129 179 168 168 153 154 156
142 159 116 165 143 156 158 157 146 96 148 158 151 158 117 96 116 131 140 148 156 166 134 135 135 151 110 133 127 140 163 173 179 171 152 135 128 168 151 156 160 155 162
136 174 193 163 105 164 76 137 82 152 145 146 157 153 151 114 123 94 87 145 153 158 157 162 166 154 166 169 169 166 185 173 161 159 133 157 146 135 172 168 161 160 155
146 200 197 90 119 110 161 140 141 104 92 97 122 121 157 154 149 124 119 131 128 126 132 138 144 139 166 159 159 138 138 163 163 157 144 142 139 141 174 169 170 163 160
151 124 133 134 131 132 144 154 115 142 105 142 153 152 115 142 129 108 147 131 137 166 153 155 157 149 158 151 171 168 163 158 151 142 126 147 161 158 154 170 168 172 174
126 142 148 147 114 136 154 129 148 136 130 155 142 147 153 122 150 153 129 137 141 149 121 156 142 156 160 151 136 158 164 157 145 145 153 140 126 148 146 150 177 179 176
152 132 136 179 126 109 153 159 163 150 138 94 143 167 104 152 146 111 108 147 134 158 131 144 149 153 169 144 139 150 150 151 151 151 140 161 148 135 136 145 144 152 168
177 169 176 159 132 129 119 120 156 150 138 147 132 137 136 143 149 146 140 138 145 140 134 126 127 148 146 146 146 156 135 147 149 144 140 135 128 144 146 158 147 144 145
157 159 170 182 154 135 179 165 111 122 137 133 136 136 139 119 137 140 141 158 147 142 138 129 140 140 148 134 155 146 149 145 139 149 143 132 142 150 151 146 153 141 145
174 171 141 168 137 161 139 144 164 126 115 115 126 132 111 125 151 140 163 155 161 154 132 136 153 129 140 145 149 164 145 141 131 132 143 125 134 136 141 139 137 146 152
180 174 163 172 136 136 162 172 141 170 165 154 126 119 139 148 151 128 147 107 157 107 134 136 156 148 146 134 144 155 154 152 148 167 130 139 142 144 140 143 143 140 139
150 187 178 164 157 153 161 146 155 168 176 121 138 121 121 127 140 147 147 163 135 143 155 155 132 148 145 146 152 151 147 146 159 146 131 139 140 147 146 144 145 147 143
Wind_Speed
11 9 11 10 12 10 23 13 14 13 13 10 9 10 10 9 8 8 8 7 9 10 11 14 11 12 16 11 14 14 15 17 16 18 20 24 32 25 29 36 39 41 40
15 32 15 12 13 13 18 14 14 15 9 8 5 11 7 6 5 6 5 8 8 10 9 8 10 13 12 16 16 17 19 20 19 21 21 23 24 26 27 24 22 24 32
45 16 16 17 16 15 16 16 18 16 15 15 13 11 9 5 5 2 8 4 5 15 6 7 10 12 13 15 17 16 21 41 24 20 25 25 26 29 30 35 30 21 28
43 46 25 18 17 17 17 17 15 16 26 18 11 11 13 4 4 8 2 3 3 3 3 7 12 10 13 10 12 20 18 23 23 23 27 25 26 27 28 34 36 35 33
44 47 28 23 20 20 20 35 21 15 17 17 13 11 8 14 26 8 8 8 4 7 10 18 15 18 8 24 37 33 25 23 27 29 27 30 32 34 38 41 40 43 48
53 46 50 43 37 21 43 43 28 38 38 22 20 15 14 10 14 9 9 10 15 13 4 7 25 24 28 21 22 25 30 29 30 33 36 39 40 41 42 42 30 38 39
55 54 52 52 38 25 25 24 43 38 37 31 25 34 16 11 14 18 14 25 13 15 22 19 16 25 28 15 34 33 35 36 35 32 34 34 34 45 42 42 36 41 47
52 55 53 52 31 37 52 50 27 45 27 30 20 19 20 17 13 24 11 24 10 12 24 29 32 26 29 35 34 36 33 29 37 40 37 31 39 41 40 41 40 43 45
51 54 58 55 60 55 53 49 44 42 23 31 31 36 27 22 33 35 41 18 20 25 26 27 41 37 35 32 31 38 39 32 33 31 35 43 38 41 42 43 46 46 46
63 48 60 56 56 54 52 35 48 49 48 46 44 25 28 36 37 24 21 22 38 29 34 42 43 42 30 38 39 31 34 39 37 45 46 28 46 31 46 45 45 45 45
69 62 63 63 37 30 58 55 27 45 43 22 24 19 22 43 30 37 31 29 29 41 42 31 31 40 37 32 38 36 40 41 41 47 47 42 43 49 49 46 46 47 46
67 66 68 68 52 61 56 47 49 55 40 37 41 34 37 44 47 50 50 31 41 46 48 36 31 39 28 39 38 43 46 39 44 31 48 49 49 52 52 50 48 47 51
82 77 74 74 47 35 63 57 49 53 38 28 44 55 46 41 39 52 52 53 53 50 36 47 49 46 43 39 48 45 42 50 49 45 51 51 51 52 49 52 49 50 51
35 66 81 77 67 71 68 66 38 41 60 48 42 41 45 55 53 53 50 54 56 54 54 53 51 48 45 47 49 52 47 49 52 51 50 49 52 51 48 55 51 51 49
86 66 79 83 79 65 73 72 68 68 66 59 56 61 49 46 53 55 55 40 33 58 49 48 40 50 48 44 46 51 52 52 47 55 51 53 54 47 48 49 54 53 53
80 88 59 82 73 78 76 74 74 46 69 64 60 61 63 51 57 61 57 56 52 47 61 60 58 51 49 51 52 52 48 49 44 42 49 55 55 46 52 54 54 56 51
71 88 92 83 58 82 44 78 49 72 72 70 66 64 64 55 64 53 49 57 55 52 52 49 49 53 47 44 45 45 39 40 46 48 57 49 51 59 49 51 54 56 55
80 89 93 52 67 64 84 74 78 63 55 61 63 69 65 66 67 69 69 61 60 59 62 59 59 61 46 48 49 56 55 45 46 48 54 54 57 56 47 51 52 53 56
89 79 85 85 83 81 83 83 61 80 66 75 70 69 62 70 72 59 66 66 62 56 59 56 55 57 49 52 46 48 47 49 52 54 61 54 47 47 50 49 52 54 53
89 93 92 91 67 84 92 77 87 82 75 78 73 73 73 61 72 70 70 67 67 62 69 58 61 56 54 55 61 50 47 49 53 53 50 58 64 53 55 54 50 52 52
94 93 91 97 86 86 93 89 90 91 84 49 76 75 79 74 73 78 76 70 72 67 69 63 62 60 59 60 63 55 54 54 52 53 59 48 54 64 62 59 59 53 53
101 94 99 95 93 92 88 88 91 87 82 86 79 75 76 76 76 75 77 78 72 71 72 75 74 64 63 64 61 60 65 58 55 57 62 62 68 60 58 55 58 59 59
100 103 99 108 98 99 101 93 72 89 91 83 83 84 84 67 83 82 82 81 78 74 73 76 72 71 68 72 65 66 65 61 62 61 62 67 62 59 59 58 59 62 62
104 106 98 98 105 96 108 106 102 95 86 87 85 86 68 76 86 85 82 82 77 79 80 80 75 80 75 73 72 69 69 69 73 72 64 71 71 69 64 63 64 64 61
102 103 108 110 101 105 98 105 102 97 94 98 92 90 91 91 89 87 87 66 81 60 84 83 76 80 79 77 75 75 73 71 71 71 77 71 69 68 69 67 67 64 68
81 109 103 112 114 115 107 111 107 104 109 77 100 92 91 92 95 97 93 87 84 89 83 85 84 80 81 78 80 80 77 74 76 76 78 75 75 72 72 71 70 68 67
Wind_Direction
232 230 244 241 186 198 207 176 173 168 162 151 143 138 136 125 114 97 83 68 57 51 42 45 11 47 23 327 338 324 287 286 281 289 284 290 296 286 297 298 297 296 293
238 210 233 223 236 207 187 187 190 181 183 170 155 160 145 134 120 70 61 63 59 66 61 45 28 18 300 283 304 336 282 276 287 292 302 300 305 306 310 319 333 327 301
212 205 219 226 229 223 226 201 190 188 195 183 178 175 190 170 161 122 255 3 355 281 45 37 12 0 6 2 350 356 305 277 290 313 304 301 300 304 307 301 307 332 313
224 213 245 209 211 223 225 230 213 202 221 229 195 187 204 180 180 211 246 274 304 33 16 357 307 352 297 4 307 294 334 302 305 307 305 307 305 303 306 305 305 301 302
226 217 209 208 207 212 226 223 233 210 209 204 216 221 217 219 237 223 241 257 291 309 321 290 329 324 333 287 279 283 295 310 302 301 304 302 303 304 304 302 300 300 302
215 232 225 219 223 211 229 232 219 229 238 240 237 228 234 246 251 246 258 273 280 298 306 324 280 286 286 291 295 319 291 293 295 300 302 301 300 302 302 302 324 308 306
219 220 220 222 219 212 223 229 224 244 230 230 251 251 243 260 259 260 269 263 299 301 285 308 310 288 289 321 281 289 290 293 295 297 296 300 309 302 304 306 311 305 310
232 223 234 236 234 224 226 228 223 232 234 233 236 246 245 256 270 262 309 261 301 306 287 283 277 291 287 281 282 277 291 305 296 297 307 319 309 309 310 310 314 312 310
222 242 225 226 230 226 229 229 236 247 238 240 246 258 245 257 270 266 254 291 300 289 282 281 276 268 268 281 293 288 290 313 309 308 307 303 318 314 313 312 310 308 310
227 234 226 227 236 240 246 227 245 233 233 233 236 246 253 239 240 248 265 272 265 274 275 270 275 276 287 287 283 304 302 293 303 297 299 298 302 309 302 308 308 310 311
225 235 232 233 236 244 235 243 254 238 240 260 250 269 275 245 265 248 263 263 272 268 269 282 286 271 282 295 291 304 295 299 307 297 298 311 312 300 301 306 308 310 313
233 225 231 230 227 239 241 247 244 235 246 249 246 259 257 249 257 258 258 271 267 270 267 278 292 282 288 295 298 287 285 308 296 301 296 298 299 300 304 306 307 311 313
219 223 228 230 245 256 241 247 250 256 257 272 249 250 246 271 272 261 259 259 260 264 278 271 271 273 290 296 281 287 301 287 291 294 297 297 299 301 305 304 308 310 312
266 241 227 230 235 231 238 244 261 262 255 257 264 267 256 250 250 257 254 263 266 268 267 269 270 271 273 275 277 286 295 295 288 290 292 297 298 300 303 304 306 308 311
246 241 234 227 231 238 233 238 248 249 248 252 258 249 259 262 266 270 255 272 272 265 270 274 282 272 276 285 277 279 285 284 286 290 292 294 297 302 299 299 305 307 308
244 240 244 232 233 235 233 235 237 255 240 239 240 242 257 264 257 252 252 256 261 270 265 269 273 275 277 276 278 280 282 284 289 290 290 296 297 301 299 301 301 304 306
247 239 232 235 249 231 257 244 265 239 241 242 241 243 244 257 257 268 273 256 261 264 266 271 274 273 274 275 278 280 283 282 283 285 292 292 299 299 299 296 298 301 305
239 234 230 245 244 253 235 243 242 258 266 258 252 252 248 251 254 259 262 257 260 263 266 267 269 271 275 277 278 280 282 280 281 284 290 293 295 299 300 298 299 299 301
230 238 232 234 237 240 242 244 253 240 255 247 245 246 257 252 256 264 257 263 260 266 263 267 271 271 272 273 279 280 279 279 281 286 289 291 294 296 297 301 301 301 300
236 229 232 236 235 239 241 244 244 246 249 245 251 249 248 260 253 257 260 260 261 259 268 266 266 272 273 269 272 277 283 279 276 281 288 287 293 293 294 298 302 300 301
232 235 234 237 233 252 238 242 243 243 244 267 248 246 260 252 254 264 268 257 259 265 263 262 265 268 280 271 270 273 273 275 278 284 282 293 289 290 291 295 298 304 307
232 230 240 230 235 237 238 251 241 245 242 246 246 250 252 254 256 257 261 260 259 261 260 266 268 269 269 271 272 279 270 276 280 277 277 281 285 288 291 298 297 298 301
235 223 233 242 237 237 245 234 239 241 243 243 245 246 247 260 249 252 254 264 260 259 260 264 262 264 271 267 278 271 275 273 275 281 281 281 282 290 293 294 298 297 300
231 237 238 232 236 239 238 238 238 241 247 253 247 250 254 258 255 254 259 260 260 262 259 260 268 264 266 269 276 282 275 274 273 275 279 284 282 283 286 286 289 296 300
226 223 225 234 242 239 236 246 240 242 238 241 245 250 248 251 253 252 256 278 259 276 259 260 266 267 270 265 273 279 279 277 278 283 277 279 282 285 285 289 289 292 297
233 234 230 238 240 231 234 245 241 240 245 244 244 254 253 249 250 253 255 255 260 260 262 262 263 267 269 270 276 276 276 277 281 278 279 280 281 285 286 287 289 292 294